Weather History for Tucson, AZ

Change the Weather History Date:

Saturday, January 26, 2013

  Actual Average Record
Temperature  
Mean Temperature 62 °F 53 °F  
Max Temperature 69 °F 66 °F 82 °F (1951)
Min Temperature 55 °F 40 °F 21 °F (1932)
Degree Days  
Heating Degree Days 3 12  
Month to date heating degree days 382 326  
Since 1 July heating degree days 803 937  
Cooling Degree Days 0 0  
Month to date cooling degree days 0 0  
Year to date cooling degree days 0 0  
Growing Degree Days 12 (Base 50)    
Moisture  
Dew Point 53 °F    
Average Humidity 73    
Maximum Humidity 100    
Minimum Humidity 45    
Precipitation  
Precipitation 0.71 in 0.03 in 0.71 in (2013)
Month to date precipitation 0.75 0.78  
Year to date precipitation 0.75 0.78  
Snow  
Snow 0.00 in - - ()
Month to date snowfall 0.0  
Snow Depth 0.00 in    
Sea Level Pressure  
Sea Level Pressure 29.93 in    
Wind  
Wind Speed 5 mph (SW)    
Max Wind Speed 22 mph    
Max Gust Speed 28 mph    
Visibility 8 miles    
Events Rain    
T = Trace of Precipitation, MM = Missing Value Source: NWS Daily Summary

Daily Weather History Graph

Daily Weather History Graph

Search for Another Location

Airport:

Trip Planner

Search our weather history database for the weather conditions in past years. The results will help you decide how hot, cold, wet, or windy it might be!

Date:

Astronomy

Jan. 26, 2013 Rise Set
Actual Time 7:20 AM MST 5:52 PM MST
Civil Twilight 6:54 AM MST 6:18 PM MST
Nautical Twilight 6:25 AM MST 6:47 PM MST
Astronomical Twilight 5:56 AM MST 7:16 PM MST
Moon 5:47 PM MST (1/26) 6:43 AM MST (1/26)
Length of Visible Light 11h 23m
Length of Day
10h 31m
Full, 100% of the Moon is Illuminated
Jan 26
Full
Jan 26
Full
Feb 3
Last Quarter
Feb 10
New
Feb 17
First Quarter

Hourly Weather History & Observations

Time (MST) Temp. Dew Point Humidity Pressure Visibility Wind Dir Wind Speed Gust Speed Precip Events Conditions
12:53 AM 64.0 °F 46.9 °F 54% 29.91 in 10.0 mi Calm Calm - N/A   Overcast
1:53 AM 61.0 °F 48.0 °F 62% 29.91 in 10.0 mi Calm Calm - N/A   Overcast
2:53 AM 61.0 °F 48.0 °F 62% 29.89 in 10.0 mi Calm Calm - N/A   Overcast
3:53 AM 59.0 °F 54.0 °F 83% 29.89 in 6.0 mi Calm Calm - 0.02 in Rain Rain
4:53 AM 59.0 °F 55.0 °F 87% 29.87 in 10.0 mi ENE 4.6 mph - 0.06 in Rain Light Rain
5:53 AM 59.0 °F 55.0 °F 87% 29.88 in 10.0 mi Calm Calm - 0.02 in Rain Light Rain
6:53 AM 57.9 °F 57.0 °F 97% 29.90 in 6.0 mi Variable 4.6 mph - 0.09 in Rain Rain
7:30 AM 57.9 °F 57.0 °F 97% 29.98 in 6.0 mi ENE 5.8 mph - 0.06 in Rain Light Rain
7:37 AM 57.9 °F 57.0 °F 97% 29.97 in 10.0 mi ENE 6.9 mph - 0.06 in Rain Light Rain
7:53 AM 57.9 °F 55.9 °F 93% 29.89 in 10.0 mi ENE 8.1 mph - 0.06 in Rain Light Rain
8:45 AM 60.1 °F 57.0 °F 90% 29.97 in 10.0 mi Calm Calm - 0.00 in   Overcast
8:53 AM 61.0 °F 57.0 °F 87% 29.89 in 10.0 mi Calm Calm - 0.00 in   Overcast
9:53 AM 63.0 °F 55.9 °F 78% 29.88 in 10.0 mi SSW 4.6 mph - 0.00 in   Overcast
10:09 AM 61.0 °F 57.0 °F 87% 29.99 in 1.8 mi WSW 13.8 mph 19.6 mph 0.01 in Rain Heavy Rain
10:21 AM 57.0 °F 54.0 °F 89% 30.01 in 0.8 mi SW 13.8 mph - 0.13 in Rain Heavy Rain
10:31 AM 57.0 °F 55.0 °F 93% 30.02 in 1.0 mi SW 11.5 mph - 0.38 in Rain Rain
10:35 AM 57.0 °F 55.0 °F 93% 30.02 in 3.0 mi SW 10.4 mph - 0.39 in Rain Rain
10:42 AM 57.0 °F 55.0 °F 93% 30.01 in 1.8 mi WSW 5.8 mph - 0.41 in Rain Heavy Rain
10:53 AM 57.0 °F 55.9 °F 96% 29.94 in 5.0 mi Calm Calm - 0.46 in Rain Light Rain
11:53 AM 59.0 °F 55.9 °F 90% 29.94 in 10.0 mi ENE 5.8 mph - 0.00 in   Overcast
12:53 PM 66.9 °F 53.1 °F 61% 29.89 in 10.0 mi SW 16.1 mph 23.0 mph N/A   Mostly Cloudy
1:53 PM 66.9 °F 51.1 °F 57% 29.87 in 10.0 mi WSW 13.8 mph - N/A   Scattered Clouds
2:53 PM 68.0 °F 48.9 °F 50% 29.86 in 10.0 mi SW 15.0 mph - N/A   Scattered Clouds
3:53 PM 68.0 °F 46.9 °F 47% 29.87 in 10.0 mi WSW 16.1 mph 25.3 mph N/A   Partly Cloudy
4:53 PM 66.9 °F 46.9 °F 49% 29.88 in 10.0 mi SW 15.0 mph 19.6 mph N/A   Partly Cloudy
5:53 PM 64.0 °F 46.9 °F 54% 29.89 in 10.0 mi WSW 4.6 mph - N/A   Clear
6:53 PM 61.0 °F 51.1 °F 70% 29.91 in 10.0 mi Calm Calm - N/A   Partly Cloudy
7:53 PM 59.0 °F 53.1 °F 81% 29.93 in 10.0 mi North 3.5 mph - N/A   Partly Cloudy
8:53 PM 57.9 °F 53.1 °F 84% 29.94 in 10.0 mi Calm Calm - N/A   Partly Cloudy
9:53 PM 55.9 °F 53.1 °F 90% 29.96 in 10.0 mi Calm Calm - N/A   Mostly Cloudy
10:53 PM 55.9 °F 53.1 °F 90% 29.97 in 10.0 mi ESE 3.5 mph - N/A   Overcast
11:53 PM 55.9 °F 53.1 °F 90% 29.97 in 10.0 mi Calm Calm - N/A   Mostly Cloudy